CST,Max TemperatureF,Mean TemperatureF,Min TemperatureF,Max Dew PointF,MeanDew PointF,Min DewpointF,Max Humidity, Mean Humidity, Min Humidity, Max Sea Level PressureIn, Mean Sea Level PressureIn, Min Sea Level PressureIn, Max VisibilityMiles, Mean VisibilityMiles, Min VisibilityMiles, Max Wind SpeedMPH, Mean Wind SpeedMPH, Max Gust SpeedMPH,PrecipitationIn, CloudCover, Events, WindDirDegrees
2012-11-1,77,64,50,47,44,38,68,50,32,30.01,29.96,29.91,10,10,9,13,8,,0.00,0,,109
2012-11-2,84,68,51,57,49,42,81,53,28,29.93,29.87,29.81,10,10,10,24,13,32,0.00,0,,193
2012-11-3,67,57,47,44,36,34,66,47,30,30.17,30.11,29.94,10,9,3,14,9,20,0.00,0,,5
2012-11-4,71,57,43,41,36,34,74,53,26,30.21,30.14,30.05,10,10,5,12,6,,0.00,1,,55
2012-11-5,64,54,44,42,38,35,72,53,35,30.13,30.08,30.04,10,10,10,24,11,34,0.00,1,,331
2012-11-6,71,54,38,39,37,34,84,55,31,30.15,30.11,30.05,10,10,10,14,5,,0.00,0,,295
2012-11-7,71,58,45,36,31,26,70,41,22,30.21,30.12,30.04,10,10,10,10,5,,0.00,0,,106
2012-11-8,78,64,50,55,44,31,66,48,38,30.04,29.93,29.84,10,10,10,28,15,33,0.00,0,,168
2012-11-9,78,68,59,60,58,55,87,67,51,29.91,29.85,29.78,10,10,10,26,20,37,0.01,1,,179
2012-11-10,75,68,62,59,57,54,85,66,52,29.89,29.79,29.68,10,10,10,28,20,41,0.00,2,,175
2012-11-11,70,52,32,62,45,25,100,85,66,30.32,29.87,29.68,10,8,2,26,16,36,0.77,7,Rain-Thunderstorm,333
2012-11-12,51,40,29,28,23,20,80,55,29,30.52,30.47,30.33,10,10,10,10,5,,0.00,0,,220
2012-11-13,56,44,31,28,25,22,77,50,27,30.50,30.42,30.31,10,10,10,13,8,,0.00,1,,182
2012-11-14,60,47,34,31,28,25,70,51,29,30.40,30.32,30.25,10,10,10,17,11,22,0.00,0,,177
2012-11-15,63,50,36,40,33,30,75,57,37,30.35,30.28,30.23,10,10,10,16,10,,0.00,0,,165
2012-11-16,63,52,40,36,31,28,71,48,27,30.43,30.37,30.33,10,10,10,8,3,,0.00,0,,133
2012-11-17,62,50,37,33,31,28,81,47,27,30.39,30.31,30.25,10,7,1,18,10,21,0.00,0,,168
2012-11-18,63,54,45,43,34,29,67,50,38,30.26,30.20,30.11,10,7,1,21,12,28,0.01,4,Rain,164
2012-11-19,72,62,53,53,47,38,89,61,49,30.14,30.12,30.07,10,10,10,20,13,20,0.00,1,,183
2012-11-20,73,60,48,55,50,43,100,82,40,30.24,30.18,30.13,10,7,0,8,3,,0.00,0,Fog,344
2012-11-21,75,62,49,50,46,41,82,57,32,30.25,30.15,30.02,10,10,10,18,10,24,0.00,0,,162
2012-11-22,75,67,59,56,50,39,73,57,45,30.21,30.00,29.89,10,10,10,26,17,33,0.00,3,,186
2012-11-23,57,47,36,36,25,19,73,43,28,30.51,30.43,30.24,10,10,10,21,15,33,0.00,1,,1
2012-11-24,58,43,28,24,21,19,71,43,23,30.43,30.24,30.01,10,10,10,20,8,28,0.00,0,,177
2012-11-25,67,54,42,38,31,22,62,43,31,29.98,29.88,29.82,10,10,10,16,12,,0.00,0,,159
2012-11-26,50,44,36,38,32,24,88,63,46,30.38,30.08,29.82,10,10,10,24,12,34,0.00,2,,7
2012-11-27,50,38,27,28,26,24,90,65,38,30.49,30.39,30.31,10,10,10,16,10,23,0.00,0,,252
2012-11-28,61,46,32,39,34,27,91,62,39,30.39,30.29,30.18,10,10,10,17,11,25,0.00,0,,173
2012-11-29,68,56,43,43,37,33,76,54,33,30.17,30.08,29.99,10,10,10,22,16,26,0.00,0,,177
2012-11-30,70,58,47,58,51,41,97,77,56,30.07,30.00,29.95,10,10,10,16,12,22,0.00,0,,170